QPF
0.01 0.01 0.01 0.01 0.01 0.01 0.00 0.00 0.00 0.01 0.00 0.00 0.01 0.01 0.01 0.00 0.00 0.00 0.00 0.00 0.00 0.00 0.00 0.00 0.00 0.00 0.00 0.00 0.00 0.00 0.00 0.00 0.00 0.00 0.00 0.00 0.01 0.01 0.01 0.01 0.01 0.02 0.01
0.02 0.01 0.01 0.01 0.01 0.01 0.00 0.00 0.00 0.00 0.00 0.00 0.00 0.00 0.00 0.00 0.00 0.00 0.00 0.00 0.00 0.00 0.00 0.00 0.00 0.00 0.00 0.00 0.00 0.00 0.00 0.00 0.01 0.01 0.01 0.01 0.01 0.01 0.01 0.01 0.01 0.02 0.01
0.03 0.02 0.01 0.01 0.01 0.01 0.00 0.00 0.00 0.00 0.00 0.00 0.00 0.00 0.00 0.00 0.00 0.00 0.00 0.00 0.00 0.00 0.00 0.00 0.00 0.00 0.00 0.00 0.01 0.01 0.01 0.01 0.01 0.01 0.01 0.01 0.01 0.01 0.01 0.01 0.01 0.01 0.01
0.04 0.03 0.02 0.02 0.02 0.01 0.00 0.00 0.00 0.00 0.00 0.00 0.00 0.00 0.00 0.00 0.00 0.00 0.00 0.00 0.00 0.00 0.00 0.00 0.00 0.00 0.00 0.00 0.01 0.01 0.01 0.01 0.02 0.01 0.01 0.01 0.01 0.01 0.01 0.02 0.03 0.02 0.01
0.03 0.03 0.03 0.03 0.02 0.02 0.01 0.01 0.01 0.00 0.01 0.01 0.01 0.01 0.01 0.01 0.01 0.01 0.01 0.00 0.00 0.00 0.00 0.00 0.00 0.00 0.00 0.01 0.01 0.01 0.01 0.01 0.01 0.01 0.01 0.00 0.02 0.02 0.03 0.04 0.05 0.05 0.03
0.01 0.02 0.03 0.04 0.03 0.03 0.03 0.02 0.02 0.01 0.01 0.01 0.02 0.01 0.01 0.01 0.01 0.01 0.01 0.01 0.01 0.01 0.00 0.00 0.00 0.00 0.01 0.01 0.00 0.01 0.01 0.02 0.02 0.03 0.02 0.01 0.02 0.03 0.03 0.05 0.06 0.06 0.05
0.01 0.04 0.03 0.03 0.03 0.03 0.05 0.03 0.03 0.02 0.02 0.02 0.02 0.02 0.01 0.01 0.01 0.01 0.02 0.02 0.02 0.01 0.01 0.01 0.01 0.01 0.01 0.01 0.01 0.01 0.02 0.02 0.03 0.04 0.04 0.03 0.04 0.03 0.04 0.05 0.07 0.07 0.05
0.02 0.03 0.03 0.03 0.03 0.04 0.04 0.04 0.02 0.02 0.02 0.01 0.02 0.02 0.02 0.02 0.02 0.02 0.02 0.02 0.02 0.02 0.01 0.01 0.01 0.02 0.01 0.01 0.01 0.02 0.02 0.02 0.02 0.02 0.04 0.04 0.04 0.04 0.06 0.05 0.06 0.06 0.06
0.02 0.03 0.03 0.04 0.04 0.03 0.03 0.02 0.02 0.02 0.01 0.01 0.01 0.02 0.02 0.02 0.03 0.03 0.03 0.03 0.03 0.03 0.02 0.02 0.02 0.02 0.01 0.01 0.02 0.02 0.02 0.02 0.02 0.02 0.02 0.05 0.04 0.05 0.08 0.08 0.08 0.08 0.06
0.03 0.03 0.04 0.06 0.07 0.05 0.03 0.02 0.02 0.01 0.01 0.02 0.01 0.01 0.01 0.01 0.02 0.02 0.03 0.04 0.04 0.04 0.04 0.03 0.03 0.02 0.02 0.02 0.03 0.03 0.03 0.02 0.02 0.02 0.03 0.03 0.02 0.07 0.11 0.11 0.10 0.09 0.07
0.02 0.02 0.03 0.03 0.04 0.05 0.04 0.02 0.02 0.01 0.01 0.01 0.01 0.01 0.01 0.02 0.02 0.03 0.02 0.03 0.05 0.06 0.06 0.06 0.05 0.04 0.04 0.04 0.03 0.03 0.04 0.04 0.03 0.04 0.06 0.04 0.05 0.09 0.12 0.11 0.09 0.09 0.07
0.01 0.01 0.02 0.03 0.03 0.03 0.03 0.03 0.03 0.02 0.02 0.02 0.02 0.02 0.02 0.03 0.03 0.02 0.03 0.03 0.04 0.06 0.06 0.07 0.06 0.06 0.07 0.07 0.06 0.05 0.05 0.04 0.04 0.06 0.06 0.05 0.06 0.08 0.12 0.12 0.11 0.10 0.10
0.02 0.02 0.02 0.03 0.02 0.02 0.03 0.03 0.03 0.03 0.04 0.04 0.04 0.04 0.04 0.03 0.03 0.03 0.03 0.04 0.05 0.05 0.08 0.09 0.07 0.08 0.09 0.09 0.07 0.06 0.05 0.05 0.05 0.06 0.05 0.05 0.07 0.10 0.13 0.14 0.14 0.13 0.13
0.01 0.01 0.01 0.01 0.02 0.02 0.02 0.02 0.02 0.02 0.03 0.03 0.03 0.03 0.04 0.04 0.05 0.05 0.03 0.03 0.04 0.05 0.08 0.09 0.10 0.10 0.11 0.11 0.09 0.08 0.07 0.07 0.07 0.07 0.07 0.05 0.06 0.09 0.13 0.17 0.16 0.15 0.13
0.04 0.03 0.02 0.02 0.02 0.02 0.02 0.02 0.02 0.02 0.02 0.02 0.02 0.03 0.03 0.05 0.06 0.06 0.04 0.05 0.05 0.07 0.08 0.10 0.10 0.10 0.11 0.11 0.11 0.11 0.09 0.07 0.07 0.06 0.06 0.04 0.04 0.05 0.09 0.14 0.15 0.13 0.12
0.06 0.05 0.03 0.02 0.03 0.03 0.03 0.03 0.03 0.03 0.03 0.02 0.03 0.03 0.04 0.05 0.06 0.07 0.07 0.06 0.06 0.08 0.09 0.10 0.10 0.08 0.09 0.10 0.10 0.09 0.07 0.06 0.06 0.06 0.05 0.04 0.03 0.04 0.07 0.11 0.14 0.15 0.15
0.07 0.04 0.02 0.03 0.03 0.03 0.03 0.03 0.03 0.04 0.04 0.04 0.04 0.05 0.06 0.06 0.06 0.07 0.09 0.08 0.06 0.06 0.08 0.11 0.11 0.10 0.08 0.07 0.08 0.08 0.07 0.06 0.05 0.04 0.04 0.05 0.05 0.05 0.07 0.08 0.10 0.11 0.13
0.05 0.04 0.03 0.03 0.03 0.03 0.03 0.03 0.03 0.03 0.03 0.03 0.04 0.05 0.06 0.05 0.05 0.06 0.06 0.07 0.07 0.06 0.07 0.10 0.11 0.09 0.07 0.08 0.09 0.10 0.07 0.05 0.04 0.04 0.04 0.06 0.07 0.07 0.07 0.06 0.07 0.08 0.10
0.05 0.04 0.04 0.04 0.04 0.03 0.04 0.05 0.03 0.03 0.03 0.03 0.03 0.04 0.04 0.05 0.05 0.05 0.05 0.06 0.07 0.07 0.07 0.06 0.07 0.07 0.06 0.07 0.07 0.08 0.07 0.05 0.04 0.04 0.05 0.05 0.05 0.06 0.07 0.06 0.07 0.07 0.07
0.05 0.06 0.06 0.06 0.06 0.07 0.05 0.03 0.03 0.03 0.03 0.02 0.03 0.03 0.02 0.02 0.02 0.03 0.04 0.06 0.07 0.06 0.07 0.07 0.09 0.09 0.08 0.09 0.09 0.08 0.07 0.05 0.05 0.04 0.05 0.06 0.05 0.05 0.06 0.07 0.08 0.08 0.07
0.09 0.10 0.10 0.09 0.10 0.09 0.07 0.05 0.05 0.04 0.04 0.03 0.03 0.03 0.02 0.01 0.01 0.02 0.03 0.05 0.07 0.06 0.06 0.09 0.11 0.10 0.09 0.08 0.09 0.09 0.08 0.07 0.06 0.05 0.05 0.06 0.06 0.05 0.04 0.05 0.06 0.06 0.07
0.10 0.12 0.11 0.09 0.07 0.07 0.07 0.08 0.08 0.07 0.06 0.04 0.03 0.02 0.01 0.01 0.02 0.02 0.04 0.05 0.07 0.08 0.07 0.09 0.12 0.10 0.10 0.09 0.09 0.12 0.12 0.11 0.08 0.07 0.06 0.06 0.06 0.06 0.06 0.06 0.06 0.06 0.05
0.06 0.07 0.08 0.07 0.06 0.06 0.07 0.06 0.05 0.05 0.05 0.03 0.02 0.02 0.01 0.01 0.02 0.03 0.03 0.04 0.05 0.05 0.06 0.07 0.09 0.09 0.09 0.08 0.08 0.10 0.13 0.14 0.09 0.08 0.07 0.05 0.04 0.04 0.04 0.04 0.06 0.07 0.06
0.05 0.04 0.06 0.06 0.07 0.07 0.07 0.07 0.07 0.05 0.04 0.03 0.03 0.02 0.02 0.01 0.02 0.02 0.04 0.05 0.06 0.05 0.04 0.04 0.06 0.07 0.07 0.06 0.06 0.06 0.08 0.12 0.12 0.08 0.06 0.05 0.04 0.04 0.04 0.04 0.03 0.04 0.04
0.03 0.04 0.04 0.05 0.06 0.05 0.06 0.06 0.05 0.04 0.03 0.02 0.02 0.02 0.02 0.03 0.04 0.05 0.04 0.05 0.05 0.06 0.06 0.05 0.05 0.06 0.07 0.06 0.05 0.05 0.07 0.08 0.11 0.11 0.07 0.05 0.05 0.05 0.05 0.05 0.04 0.03 0.02
0.03 0.03 0.03 0.03 0.03 0.04 0.04 0.04 0.04 0.03 0.02 0.02 0.01 0.01 0.01 0.02 0.04 0.04 0.03 0.03 0.04 0.04 0.04 0.05 0.05 0.05 0.05 0.05 0.05 0.05 0.05 0.06 0.06 0.07 0.07 0.07 0.06 0.05 0.06 0.06 0.05 0.04 0.03
MSLP
1013.27 1013.40 1013.70 1014.13 1014.60 1015.03 1015.36 1015.55 1015.62 1015.62 1015.60 1015.64 1015.78 1016.03 1016.36 1016.73 1017.06 1017.30 1017.44 1017.46 1017.40 1017.32 1017.27 1017.27 1017.35 1017.48 1017.65 1017.80 1017.90 1017.94 1017.92 1017.85 1017.77 1017.72 1017.73 1017.80 1017.93 1018.11 1018.29 1018.48 1018.63 1018.75 1018.85
1013.17 1013.42 1013.84 1014.37 1014.92 1015.40 1015.75 1015.93 1015.98 1015.94 1015.90 1015.92 1016.06 1016.32 1016.65 1017.02 1017.34 1017.57 1017.67 1017.66 1017.57 1017.47 1017.40 1017.42 1017.53 1017.70 1017.90 1018.08 1018.20 1018.24 1018.19 1018.10 1017.99 1017.92 1017.91 1017.99 1018.13 1018.32 1018.52 1018.70 1018.85 1018.97 1019.05
1013.01 1013.38 1013.91 1014.54 1015.17 1015.71 1016.10 1016.31 1016.36 1016.32 1016.26 1016.27 1016.40 1016.63 1016.95 1017.28 1017.57 1017.76 1017.83 1017.79 1017.69 1017.58 1017.54 1017.59 1017.73 1017.94 1018.17 1018.36 1018.47 1018.48 1018.40 1018.26 1018.12 1018.01 1017.99 1018.06 1018.21 1018.41 1018.62 1018.82 1018.97 1019.09 1019.17
1012.85 1013.30 1013.92 1014.64 1015.34 1015.95 1016.39 1016.64 1016.72 1016.69 1016.64 1016.64 1016.74 1016.95 1017.23 1017.52 1017.76 1017.91 1017.94 1017.89 1017.79 1017.71 1017.70 1017.79 1017.98 1018.22 1018.46 1018.64 1018.72 1018.68 1018.54 1018.35 1018.16 1018.03 1017.99 1018.05 1018.20 1018.41 1018.64 1018.85 1019.03 1019.15 1019.25
1012.73 1013.23 1013.90 1014.67 1015.43 1016.09 1016.58 1016.88 1017.00 1017.00 1016.97 1016.97 1017.06 1017.24 1017.48 1017.72 1017.92 1018.03 1018.05 1018.00 1017.92 1017.88 1017.92 1018.05 1018.27 1018.52 1018.75 1018.90 1018.93 1018.84 1018.64 1018.39 1018.16 1017.99 1017.94 1018.00 1018.16 1018.38 1018.63 1018.86 1019.05 1019.20 1019.32
1012.71 1013.22 1013.91 1014.69 1015.47 1016.15 1016.68 1017.01 1017.17 1017.22 1017.22 1017.24 1017.33 1017.49 1017.70 1017.91 1018.07 1018.16 1018.17 1018.13 1018.09 1018.09 1018.17 1018.33 1018.57 1018.82 1019.03 1019.13 1019.10 1018.94 1018.69 1018.39 1018.12 1017.93 1017.88 1017.94 1018.12 1018.36 1018.62 1018.87 1019.09 1019.26 1019.41
1012.85 1013.33 1013.98 1014.72 1015.48 1016.15 1016.68 1017.04 1017.24 1017.32 1017.36 1017.42 1017.52 1017.68 1017.88 1018.07 1018.21 1018.29 1018.31 1018.29 1018.27 1018.31 1018.42 1018.61 1018.84 1019.07 1019.24 1019.29 1019.20 1018.98 1018.68 1018.34 1018.06 1017.87 1017.82 1017.91 1018.10 1018.36 1018.64 1018.90 1019.13 1019.32 1019.49
1013.17 1013.59 1014.16 1014.83 1015.51 1016.13 1016.63 1016.99 1017.21 1017.33 1017.41 1017.50 1017.64 1017.81 1018.01 1018.19 1018.33 1018.41 1018.44 1018.43 1018.44 1018.50 1018.62 1018.81 1019.02 1019.22 1019.33 1019.33 1019.19 1018.93 1018.60 1018.25 1017.97 1017.80 1017.77 1017.88 1018.09 1018.37 1018.66 1018.93 1019.16 1019.35 1019.53
1013.67 1014.00 1014.47 1015.02 1015.60 1016.14 1016.58 1016.90 1017.12 1017.26 1017.38 1017.51 1017.68 1017.88 1018.09 1018.28 1018.42 1018.50 1018.53 1018.53 1018.54 1018.60 1018.72 1018.89 1019.07 1019.22 1019.29 1019.23 1019.05 1018.77 1018.43 1018.10 1017.84 1017.70 1017.70 1017.84 1018.07 1018.35 1018.65 1018.91 1019.14 1019.33 1019.50
1014.31 1014.56 1014.91 1015.33 1015.78 1016.20 1016.55 1016.82 1017.01 1017.16 1017.30 1017.47 1017.67 1017.89 1018.12 1018.31 1018.45 1018.53 1018.55 1018.55 1018.55 1018.60 1018.69 1018.82 1018.96 1019.06 1019.09 1019.00 1018.79 1018.50 1018.17 1017.87 1017.64 1017.54 1017.58 1017.74 1017.99 1018.28 1018.57 1018.82 1019.03 1019.20 1019.36
1015.04 1015.21 1015.45 1015.75 1016.06 1016.35 1016.60 1016.79 1016.94 1017.07 1017.22 1017.41 1017.62 1017.86 1018.10 1018.29 1018.43 1018.50 1018.50 1018.48 1018.47 1018.48 1018.53 1018.62 1018.72 1018.77 1018.76 1018.64 1018.43 1018.15 1017.84 1017.57 1017.39 1017.33 1017.39 1017.57 1017.83 1018.11 1018.39 1018.62 1018.81 1018.97 1019.11
1015.78 1015.91 1016.07 1016.25 1016.44 1016.60 1016.73 1016.84 1016.93 1017.04 1017.17 1017.36 1017.58 1017.82 1018.05 1018.24 1018.36 1018.41 1018.40 1018.35 1018.30 1018.28 1018.30 1018.34 1018.39 1018.40 1018.36 1018.22 1018.01 1017.75 1017.47 1017.23 1017.08 1017.05 1017.13 1017.32 1017.57 1017.85 1018.10 1018.32 1018.49 1018.63 1018.76
1016.50 1016.61 1016.71 1016.81 1016.88 1016.94 1016.97 1016.99 1017.02 1017.08 1017.19 1017.36 1017.57 1017.80 1018.01 1018.18 1018.29 1018.31 1018.28 1018.20 1018.12 1018.06 1018.04 1018.04 1018.04 1018.02 1017.95 1017.80 1017.59 1017.34 1017.08 1016.87 1016.73 1016.72 1016.81 1016.99 1017.23 1017.49 1017.73 1017.93 1018.09 1018.23 1018.35
1017.16 1017.27 1017.34 1017.37 1017.38 1017.35 1017.30 1017.24 1017.21 1017.22 1017.30 1017.43 1017.62 1017.82 1018.01 1018.16 1018.24 1018.24 1018.18 1018.08 1017.98 1017.89 1017.83 1017.79 1017.75 1017.70 1017.60 1017.44 1017.22 1016.97 1016.72 1016.51 1016.39 1016.36 1016.44 1016.61 1016.83 1017.06 1017.29 1017.49 1017.65 1017.78 1017.91
1017.72 1017.85 1017.92 1017.92 1017.88 1017.80 1017.69 1017.58 1017.50 1017.48 1017.51 1017.61 1017.75 1017.92 1018.08 1018.19 1018.25 1018.23 1018.15 1018.04 1017.92 1017.80 1017.71 1017.64 1017.57 1017.47 1017.34 1017.16 1016.93 1016.66 1016.41 1016.20 1016.05 1016.01 1016.07 1016.20 1016.39 1016.61 1016.83 1017.02 1017.19 1017.34 1017.49
1018.20 1018.34 1018.42 1018.42 1018.36 1018.25 1018.12 1017.99 1017.88 1017.82 1017.82 1017.88 1017.98 1018.11 1018.23 1018.31 1018.34 1018.31 1018.22 1018.10 1017.97 1017.83 1017.72 1017.61 1017.50 1017.37 1017.20 1016.98 1016.72 1016.44 1016.16 1015.93 1015.76 1015.69 1015.71 1015.81 1015.97 1016.17 1016.37 1016.57 1016.75 1016.93 1017.12
1018.58 1018.74 1018.82 1018.83 1018.77 1018.67 1018.54 1018.41 1018.30 1018.22 1018.20 1018.22 1018.29 1018.37 1018.45 1018.50 1018.51 1018.46 1018.37 1018.25 1018.11 1017.97 1017.83 1017.69 1017.54 1017.37 1017.15 1016.89 1016.60 1016.28 1015.98 1015.71 1015.52 1015.41 1015.39 1015.46 1015.59 1015.77 1015.96 1016.16 1016.37 1016.57 1016.79
1018.88 1019.04 1019.12 1019.14 1019.10 1019.02 1018.92 1018.81 1018.71 1018.64 1018.61 1018.61 1018.64 1018.68 1018.71 1018.73 1018.71 1018.66 1018.56 1018.44 1018.31 1018.16 1018.00 1017.84 1017.65 1017.43 1017.17 1016.87 1016.53 1016.19 1015.85 1015.56 1015.34 1015.21 1015.16 1015.19 1015.29 1015.45 1015.63 1015.83 1016.05 1016.28 1016.53
1019.10 1019.24 1019.32 1019.34 1019.33 1019.28 1019.22 1019.15 1019.09 1019.04 1019.00 1018.99 1018.98 1018.98 1018.98 1018.96 1018.92 1018.85 1018.76 1018.65 1018.51 1018.36 1018.20 1018.01 1017.79 1017.53 1017.22 1016.88 1016.52 1016.15 1015.79 1015.49 1015.25 1015.09 1015.02 1015.03 1015.11 1015.24 1015.41 1015.61 1015.83 1016.07 1016.34
1019.26 1019.37 1019.43 1019.46 1019.46 1019.45 1019.44 1019.42 1019.39 1019.37 1019.34 1019.32 1019.29 1019.25 1019.21 1019.15 1019.09 1019.01 1018.92 1018.81 1018.69 1018.54 1018.37 1018.17 1017.92 1017.63 1017.30 1016.93 1016.55 1016.16 1015.81 1015.50 1015.26 1015.09 1015.01 1015.01 1015.07 1015.18 1015.33 1015.51 1015.73 1015.97 1016.23
1019.36 1019.44 1019.48 1019.50 1019.52 1019.54 1019.57 1019.60 1019.62 1019.62 1019.61 1019.58 1019.53 1019.45 1019.37 1019.29 1019.20 1019.11 1019.01 1018.92 1018.81 1018.68 1018.51 1018.30 1018.05 1017.75 1017.40 1017.02 1016.63 1016.25 1015.90 1015.60 1015.37 1015.22 1015.14 1015.13 1015.18 1015.27 1015.40 1015.57 1015.76 1015.99 1016.24
1019.44 1019.49 1019.51 1019.52 1019.54 1019.58 1019.64 1019.71 1019.77 1019.81 1019.81 1019.77 1019.70 1019.60 1019.48 1019.36 1019.25 1019.15 1019.06 1018.97 1018.88 1018.77 1018.62 1018.42 1018.17 1017.87 1017.52 1017.15 1016.77 1016.40 1016.07 1015.80 1015.59 1015.46 1015.39 1015.38 1015.42 1015.51 1015.62 1015.77 1015.94 1016.14 1016.37
1019.53 1019.57 1019.56 1019.55 1019.57 1019.62 1019.70 1019.80 1019.89 1019.95 1019.97 1019.93 1019.84 1019.71 1019.56 1019.41 1019.28 1019.17 1019.08 1019.01 1018.93 1018.85 1018.72 1018.55 1018.31 1018.02 1017.69 1017.33 1016.96 1016.61 1016.31 1016.06 1015.88 1015.77 1015.72 1015.72 1015.76 1015.84 1015.94 1016.07 1016.23 1016.41 1016.61
1019.67 1019.71 1019.69 1019.66 1019.66 1019.71 1019.79 1019.90 1020.01 1020.09 1020.12 1020.08 1019.97 1019.83 1019.65 1019.48 1019.32 1019.20 1019.11 1019.05 1019.00 1018.93 1018.84 1018.69 1018.48 1018.21 1017.89 1017.54 1017.18 1016.85 1016.57 1016.34 1016.17 1016.08 1016.04 1016.06 1016.11 1016.19 1016.30 1016.43 1016.57 1016.74 1016.92
1019.90 1019.95 1019.92 1019.87 1019.84 1019.87 1019.95 1020.06 1020.17 1020.26 1020.29 1020.25 1020.14 1019.98 1019.79 1019.59 1019.41 1019.28 1019.19 1019.13 1019.09 1019.05 1018.98 1018.85 1018.66 1018.41 1018.10 1017.76 1017.41 1017.08 1016.79 1016.57 1016.41 1016.32 1016.29 1016.31 1016.37 1016.47 1016.59 1016.73 1016.88 1017.05 1017.23
1020.24 1020.29 1020.25 1020.18 1020.12 1020.12 1020.18 1020.27 1020.38 1020.47 1020.51 1020.47 1020.36 1020.19 1019.98 1019.77 1019.58 1019.43 1019.33 1019.27 1019.24 1019.20 1019.14 1019.03 1018.85 1018.60 1018.29 1017.95 1017.59 1017.24 1016.94 1016.69 1016.51 1016.41 1016.37 1016.40 1016.47 1016.58 1016.72 1016.89 1017.07 1017.26 1017.45
Thickness
5798 5793 5781 5778 5776 5775 5774 5772 5770 5768 5765 5763 5760 5758 5756 5755 5753 5752 5751 5750 5749 5748 5748 5747 5746 5746 5745 5745 5744 5743 5743 5742 5741 5741 5740 5739 5738 5737 5736 5735 5736 5736 5732
5799 5789 5779 5776 5774 5772 5770 5769 5766 5764 5762 5759 5757 5755 5753 5752 5750 5749 5748 5747 5746 5745 5745 5744 5744 5743 5743 5742 5742 5741 5740 5739 5739 5738 5738 5737 5736 5734 5733 5733 5733 5734 5730
5794 5786 5777 5772 5770 5768 5767 5765 5763 5760 5758 5756 5754 5752 5750 5749 5747 5746 5745 5744 5743 5742 5742 5742 5741 5740 5740 5739 5739 5738 5737 5737 5736 5736 5737 5740 5737 5733 5731 5730 5729 5728 5727
5789 5782 5777 5769 5767 5764 5763 5761 5759 5757 5755 5752 5750 5748 5746 5745 5744 5743 5742 5741 5740 5739 5739 5738 5738 5737 5737 5736 5735 5735 5735 5734 5734 5735 5739 5741 5738 5732 5729 5727 5726 5725 5724
5784 5779 5772 5766 5764 5761 5759 5757 5755 5753 5751 5749 5747 5745 5743 5742 5740 5739 5738 5737 5737 5736 5735 5735 5735 5734 5733 5733 5732 5732 5732 5732 5732 5733 5739 5738 5736 5730 5727 5726 5724 5723 5722
5780 5776 5768 5763 5760 5757 5755 5753 5751 5749 5747 5745 5743 5742 5740 5738 5737 5736 5735 5734 5733 5732 5732 5731 5731 5731 5730 5730 5729 5729 5729 5729 5730 5737 5737 5736 5735 5729 5726 5724 5723 5721 5720
5779 5773 5765 5759 5756 5753 5751 5749 5747 5745 5743 5741 5739 5738 5736 5735 5733 5732 5731 5730 5730 5729 5729 5728 5727 5727 5727 5726 5726 5726 5726 5727 5730 5735 5734 5734 5733 5727 5724 5722 5721 5719 5718
5775 5770 5762 5755 5752 5750 5747 5745 5743 5741 5739 5737 5735 5734 5733 5731 5729 5728 5727 5727 5726 5725 5725 5724 5724 5724 5724 5723 5723 5723 5723 5723 5729 5733 5732 5732 5728 5724 5722 5720 5719 5717 5716
5772 5767 5760 5755 5750 5746 5743 5741 5739 5737 5735 5733 5731 5730 5729 5727 5726 5725 5724 5723 5722 5722 5722 5721 5721 5720 5721 5721 5720 5720 5720 5721 5725 5730 5730 5729 5725 5721 5720 5718 5717 5715 5714
5767 5763 5758 5754 5749 5745 5741 5736 5734 5732 5731 5729 5727 5726 5725 5724 5723 5722 5721 5720 5719 5719 5718 5718 5717 5717 5717 5717 5717 5717 5717 5718 5724 5728 5728 5726 5721 5718 5717 5716 5714 5713 5712
5760 5758 5755 5752 5747 5743 5740 5734 5731 5729 5727 5726 5724 5722 5722 5724 5723 5721 5719 5716 5715 5715 5715 5714 5714 5714 5714 5715 5714 5714 5714 5719 5724 5724 5722 5719 5717 5715 5714 5713 5712 5711 5710
5751 5750 5750 5747 5743 5740 5738 5732 5730 5728 5725 5724 5723 5721 5721 5720 5719 5719 5715 5713 5712 5711 5711 5711 5711 5711 5712 5715 5714 5712 5715 5716 5718 5718 5716 5713 5712 5711 5711 5710 5709 5708 5707
5747 5744 5744 5741 5738 5736 5733 5730 5728 5725 5722 5721 5719 5717 5716 5716 5715 5715 5714 5713 5711 5710 5710 5710 5710 5710 5711 5711 5710 5710 5711 5712 5712 5713 5712 5709 5707 5707 5707 5707 5706 5705 5705
5742 5739 5738 5736 5733 5730 5728 5726 5723 5721 5719 5717 5714 5713 5712 5711 5710 5709 5709 5709 5708 5708 5706 5706 5706 5706 5705 5704 5704 5704 5705 5705 5706 5706 5705 5703 5702 5703 5703 5703 5703 5702 5702
5736 5734 5733 5730 5727 5724 5722 5720 5718 5716 5714 5711 5709 5707 5706 5705 5705 5704 5702 5702 5703 5702 5702 5701 5701 5700 5699 5699 5699 5699 5698 5698 5699 5700 5700 5698 5698 5698 5699 5699 5699 5699 5699
5732 5729 5728 5724 5721 5718 5716 5713 5711 5710 5707 5705 5703 5700 5699 5699 5698 5697 5697 5695 5696 5696 5695 5694 5695 5694 5694 5694 5694 5693 5692 5693 5693 5693 5694 5694 5693 5693 5694 5695 5695 5695 5695
5727 5725 5722 5719 5715 5712 5710 5708 5706 5703 5701 5699 5697 5694 5692 5692 5691 5690 5690 5690 5689 5688 5688 5688 5689 5688 5689 5689 5689 5688 5687 5687 5687 5687 5688 5689 5690 5689 5689 5689 5690 5690 5691
5723 5719 5716 5714 5710 5707 5704 5701 5700 5697 5695 5692 5690 5688 5686 5685 5684 5683 5683 5683 5681 5681 5682 5682 5682 5683 5683 5682 5682 5682 5682 5681 5681 5681 5682 5683 5684 5685 5684 5683 5684 5685 5685
5718 5714 5710 5707 5704 5701 5697 5695 5693 5689 5687 5685 5682 5680 5679 5677 5676 5676 5676 5675 5674 5675 5674 5675 5675 5674 5675 5675 5676 5675 5675 5675 5674 5675 5676 5676 5676 5677 5678 5677 5677 5678 5679
5712 5708 5704 5701 5697 5694 5691 5688 5686 5683 5680 5677 5675 5672 5670 5669 5668 5668 5668 5666 5666 5666 5666 5665 5665 5666 5667 5668 5670 5670 5669 5669 5668 5668 5669 5670 5670 5670 5671 5672 5672 5673 5673
5706 5702 5698 5694 5691 5688 5685 5683 5679 5675 5672 5669 5666 5663 5662 5661 5660 5659 5660 5658 5657 5657 5656 5656 5657 5659 5660 5660 5661 5661 5662 5663 5662 5661 5662 5663 5664 5663 5664 5665 5666 5667 5668
5701 5697 5692 5688 5685 5682 5679 5675 5671 5667 5665 5662 5658 5655 5653 5652 5651 5652 5649 5650 5649 5648 5647 5647 5647 5649 5651 5652 5652 5653 5653 5654 5653 5655 5655 5655 5656 5657 5657 5657 5657 5659 5661
5696 5691 5687 5682 5679 5675 5672 5669 5665 5661 5658 5654 5651 5648 5645 5643 5642 5641 5640 5639 5639 5640 5640 5638 5638 5639 5641 5644 5645 5645 5645 5646 5646 5647 5647 5648 5648 5649 5650 5650 5651 5651 5652
5690 5685 5680 5676 5672 5669 5665 5662 5658 5654 5650 5646 5643 5640 5637 5635 5634 5632 5631 5630 5630 5631 5630 5631 5632 5632 5632 5634 5636 5637 5638 5639 5638 5638 5639 5640 5641 5642 5643 5644 5644 5644 5645
5685 5680 5675 5670 5665 5661 5657 5653 5650 5647 5643 5639 5635 5631 5629 5628 5625 5624 5623 5622 5621 5622 5622 5622 5622 5624 5625 5626 5627 5629 5630 5632 5634 5633 5632 5632 5634 5636 5636 5636 5637 5638 5638
5679 5673 5668 5663 5658 5654 5650 5646 5642 5638 5634 5630 5627 5624 5623 5621 5618 5616 5615 5614 5614 5614 5613 5614 5615 5616 5616 5617 5619 5621 5622 5624 5627 5628 5627 5626 5627 5629 5630 5630 5631 5631 5632